Location: Unspecified
(0.0000°N, 0.0000°E)
Time: 12:19:03
(UTC+01:00)

NOAA 12 - Visible Passes

Search period start: 21 December 2014 00:00
Search period end: 31 December 2014 00:00
Orbit: 795 x 816 km, 98.6° (Epoch: 20 December)

Date Brightness Start Highest point End Pass type
(mag) Time Alt. Az. Time Alt. Az. Time Alt. Az.
21 Dec 4.0 20:03:29 10° SSE 20:08:42 66° ENE 20:13:51 10° N visible
22 Dec 4.7 19:39:15 10° SE 19:43:54 33° ENE 19:48:31 10° NNE visible
22 Dec 6.8 21:20:24 10° SW 21:23:24 15° WSW 21:26:23 10° WNW visible
23 Dec 5.9 20:54:04 10° SSW 20:58:38 31° WSW 21:03:10 10° NW visible
24 Dec 4.5 20:28:40 10° S 20:33:51 62° WSW 20:38:59 10° NNW visible
25 Dec 4.0 20:03:51 10° SSE 20:09:03 67° ENE 20:14:13 10° N visible
26 Dec 4.7 19:39:36 10° SE 19:44:15 33° ENE 19:48:52 10° NNE visible
26 Dec 6.9 21:20:49 10° SW 21:23:46 15° WSW 21:26:42 10° WNW visible
27 Dec 5.9 20:54:27 10° SSW 20:58:59 30° WSW 21:03:31 10° NW visible
28 Dec 4.6 20:29:02 10° S 20:34:12 61° WSW 20:39:20 10° NNW visible
29 Dec 4.0 20:04:12 10° SSE 20:09:24 67° ENE 20:14:34 10° N visible
30 Dec 4.7 19:39:57 10° SE 19:44:36 33° ENE 19:49:14 10° NNE visible
30 Dec 6.9 21:21:13 10° SW 21:24:07 15° WSW 21:27:00 10° WNW visible
